STARLINK-1327 (45555 NORAD) Tracking and Keplerian Element Data

This shows tracking and keplerian element data for the satellite.

Feedback or suggestion? Click here.




ElementValue
Catalog45555
NameSTARLINK-1327
Epoch Orbit177
Epoch Day193.91667824
Epoch Year2020
RAAN6.5491
Inclination52.997
Eccentricity0.0001385
Argument of Perigee66.0797
Mean Anonmoly64.2748
Mean Motion15.41606133
Decay Rate-0.01135295
L11 45555U 20025AA 20193.91667824 -.01135295 00000-0 -29066-1 0 9993
L22 45555 52.9970 6.5491 0001385 66.0797 64.2748 15.41606133 1771

Live tracking and technical data element details for STARLINK-1327 (NORAD 45555). STARLINK-1327 can be tracked NOW for your location showing map with azimuth and elevation plus other details from your city location.

Track the satellite on the map from your city or location and see movement details for azimuth, elevation, latitude, longitude, range, height, and movement on the map or in text.







IsCatalogInMostPopularTable: catalog: 45555, numindb: 17
Update: records affected: 1



GetName: 45555 STARLINK-1327

Hit Count: updated at: Mon, 13 Jul 2020 05:47:53 GMT